Weather in Anyuysk

Russia / Chukotka Autonomous Okrug     68°20′40″N   161°33′37″E
temp.,
°C
wind,
m/s
gust,
m/s
humid.,
%
clouds,
%
prec.,
mm/h
press.,
hPa
HPBL,
m
17 august, wed
wed1700:00+10se111959100 0.0 1009608
03:00+9se101755100 0.0 1008626
06:00+9se91556100 0.0 1007752
09:00+12se10124597 0.0 1007755
12:00+15se91041100 0.0 10061061
15:00+16se8840100 0.0 10051339
18:00+15se91039100 0.0 10051064
21:00+13se81143100 0.0 1006498
18 august, thu
thu1800:00+11ese61147100 0.0 1006254
03:00+10ese71149100 0.0 1006259
06:00+9ese7115080 0.0 1006279
09:00+13se7104163 0.0 1006790
12:00+16se78375 0.0 10051311
15:00+18sse78283 0.0 10041725
18:00+18se89342 0.0 10051850
21:00+14sse47535 0.0 1006104
19 august, fri
fri1900:00+10ese33635 0.0 100722
03:00+9ese56525 0.0 100871
06:00+9ese47510 0.0 1008105
09:00+14se68400 0.0 1009571
12:00+17sse77350 0.0 10091138
15:00+19sse67270 0.0 10081645
18:00+20sse68250 0.0 10081801
21:00+15se45390 0.0 100849
20 august, sat
sat2000:00+12se58460 0.0 100995
03:00+10ese56490 0.0 100966
06:00+10ese510500 0.0 1010162
09:00+15se810380 0.0 1010795
12:00+18se78310 0.0 10091414
15:00+20se78270 0.0 10091854
18:00+20se78272 0.0 10091907
21:00+15ese610412 0.0 1010152
21 august, sun
sun2100:00+12se44540 0.0 101135
03:00+10ese45570 0.0 101251
06:00+10ese46584 0.0 101368
09:00+14se45450 0.0 1013481
12:00+18se67400 0.0 10131242
15:00+20se67370 0.0 10131722
18:00+20se78380 0.0 10131839
21:00+15se510530 0.0 1013151